Showing default

MAGNARO-2, 68798

Orbit data source: Space-Track

MAGNARO-2, 68798 is a Japanese payload satellite in SSO that was launched on Thu, 23 Apr 2026 UTC via an ELECTRON launch vehicle from the Rocket Lab Launch Complex (RLLC). Payload-class satellites include a variety of spacecraft equipped with specific instruments for various scientific and technological missions. These include communications satellites like Starlink; space stations such as the ISS; scientific satellites like the Hubble; Earth observation satellites from companies like Planet Labs, Umbra, and HawkEye 360; GPS; miniature CubeSats for education and research; and military/defense satellites.

Loading next visibility...
Identifier
68798, 2026-088G
Orbit
SSO
Country
Flag of JPJP / JPN
Related business
None
Manufacturer
Unknown
Mission
Operational spacecraft
Bus & Motor
Unknown
Mass
Unknown
Launch date (UTC)
2026-04-23 (2 months ago)
Launch vehicle
ELECTRON
Launch site
Rocket Lab Launch Complex (RLLC)
Object type
Payload
Rocket body
Debris
Shape & HBR
Unknown shape, 14.5 m
Radar Cross Section
Medium (>0.1 m² and <1 m²)

Expand to show TLE details & history
Last TLE update: 14 hours ago

TLE from 14 hours ago
0 MAGNARO-2
1 68798U 26088G   26171.39729625  .00002656  00000-0  17212-3 0  9997
2 68798  97.5077 320.7490 0020510  72.2845 288.0620 15.08804671  8785
Epoch: 2026-06-20T09:32Z
TLE epoch observation values (Epoch: 2026-06-20T09:32:06.395Z)
Latitude
-0.0001°
Longitude
-90.89014°
Altitude
538.55 km
Speed
7.596 km/s
True Right ascension
21h 22m 59s
True Declination
0° 00' 00"
Sunlit
Object was in full shadow at epoch
Visualization orbit readout
Latitude
Unknown
Longitude
Unknown
Altitude
Unknown
Speed
Unknown
Apparent Right ascension
Unknown
Apparent Declination
Unknown
Sunlit
N/A
Visualization observer readout
Local Sidereal Time
10:19:48
Azimuth
Unknown
Elevation
Unknown
Doppler factor
Unknown
Orbital elements
Apogee altitude
551.019 km
Perigee altitude
522.654 km
Semi-major axis
6,914.973 km
Eccentricity
0.00205
Inclination
97.5077°
RAAN
320.749°
Arg. of periapsis
72.2845°
True anomaly
287.83838°
Mean anomaly
288.062°
Eccentric anomaly
287.95021°
Mean motion
3.77448 °/min
Orbital period
95.38 mins
BSTAR
0.00017212
Loading maneuver chart data...
Computing Atmospheric mass density...
Loading historical data...
Loading historical data...
Loading historical data...
Loading historical data...
Loading historical data...
Loading historical data...
Loading historical data...

Documentation

Showing up to 5 results
|